Location: S�deilles
(46.7500°N, 6.9329°E)
Time: 08:04:52
(UTC+00:00)

Cosmos 1763 Rocket - Pass Details

Date: 08 March 2021
Orbit: 733 x 779 km, 74.0° (Epoch: 14 April)

Event Time Altitude Azimuth Distance (km) Brightness Sun altitude
Rises 18:54:37 0° 169° (S) 3,246 6.5 -15.6°
Reaches altitude 10° 18:57:14 10° 159° (SSE) 2,325 5.7 -16.0°
Maximum altitude 19:01:45 29° 100° (E) 1,391 4.2 -16.8°
Drops below altitude 10° 19:06:17 10° 41° (NE) 2,338 5.7 -17.5°
Sets 19:08:56 0° 31° (NNE) 3,267 6.6 -18.0°
